Flag for Nepal Weather past 2 weeks in Kathmandu, Nepal

Now
79 °F

Scattered clouds.


Feels Like: 81 °F
Forecast: 63 / 85 °F
Wind: No wind

Location: Kathmandu Airport

Current Time: Jul 28, 2014 at 10:11:08 AM

Latest Report: Jul 28, 2014 at 9:35 AM


Visibility: N/A

Pressure: 29.89 "Hg

Humidity: 61%

Dew point: 64 °F

Location of KathmanduLocation

Historic Weather in Kathmandu — Graph

°F

Kathmandu temperature yesterday

Maximum temperature yesterday: 84 °F (at 1:35 PM)
Minimum temperature yesterday: 70 °F (at 3:35 AM)
Average temperature yesterday: 74 °F

Past Weeks' High & Low Weather Summary

 TemperatureHumidityPressure
High84 °F (Jul 19, 1:35 PM)100% (Jul 13, 1:35 PM)29.98 "Hg (Jul 13, 1:35 PM)
Low68 °F (Jul 13, 1:35 PM)48% (Jul 27, 1:35 PM)29.62 "Hg (Jul 19, 4:35 PM)
Average74 °F79%29.81 "Hg
* Reported Jul 13 8:35 AM — Jul 28 8:35 AM, Kathmandu, Weather by CustomWeather, © 2014

Note: Actual official high and low records may vary slightly from our data, if they occured in-between our weather recording intervals... More about our weather records

Advertising

Kathmandu weather history for previous 24 hours

 ConditionsComfort  
Time TempWeatherWind HumidityBarometerVisibility
8:35 AM
Jul 28
75 °FScattered clouds.No wind69%29.89 "Hg5 mi
7:35 AM73 °FPartly sunny.No wind78%29.89 "Hg4 mi
6:35 AM72 °FBroken clouds.No wind83%29.89 "Hg4 mi
5:35 AM70 °FPartly cloudy.No wind88%29.89 "Hg4 mi
4:35 AM70 °FPartly cloudy.No wind88%29.89 "Hg4 mi
3:35 AM72 °FMostly cloudy.No wind83%29.89 "Hg4 mi
1:35 AM72 °FPartly cloudy.3 mph83%29.92 "Hg4 mi
12:35 AM72 °FPartly cloudy.3 mph78%29.92 "Hg4 mi
11:35 PM
Jul 27
72 °FPartly cloudy.3 mph78%29.95 "Hg4 mi
10:35 PM70 °FPartly cloudy.3 mph83%29.95 "Hg4 mi
9:35 PM73 °FPassing clouds.3 mph74%29.95 "Hg4 mi
8:35 PM73 °FPartly cloudy.No wind78%29.92 "Hg5 mi
7:35 PM73 °FBroken clouds.No wind74%29.89 "Hg5 mi
6:35 PM73 °FBroken clouds.5 mph74%29.86 "Hg5 mi
5:35 PM75 °FBroken clouds.8 mph69%29.86 "Hg5 mi
4:35 PM75 °FRain. Broken clouds.8 mph69%29.83 "Hg5 mi
3:35 PM82 °FBroken clouds.7 mph58%29.83 "Hg5 mi
2:35 PM82 °FPassing clouds.3 mph48%29.86 "HgN/A
1:35 PM84 °FPartly sunny.5 mph48%29.89 "HgN/A
12:35 PM81 °FPartly sunny.2 mph58%29.92 "HgN/A
11:35 AM79 °FBroken clouds.6 mph61%29.95 "Hg5 mi
10:35 AM77 °FBroken clouds.6 mph69%29.98 "Hg5 mi
Weather by CustomWeather, © 2014

See weather overviewHow to use our weather pages